Theta_e
323 332 330 325 328 331 328 321 317 320 318 311 312 314 312 313 312 309 310 310 308 309 312 310 309 310 309 309 309 304 301 300 299 300 299 297 296 296 296 296 296 297 296 295 293 292 291 291 291 291 291 291 291 291 290 290 290 289 289 289 288 288 287 287 287 286 286 285 285 285 284 284 284 284 285 285 285 285 284 284 283 283 283 283 283 283
327 329 328 331 329 326 324 318 313 313 312 310 312 314 313 312 312 309 309 309 307 309 313 312 310 310 309 308 308 306 302 301 300 300 299 298 297 296 296 296 296 296 296 295 293 292 291 291 291 291 291 291 291 290 290 290 290 289 289 288 288 288 287 287 286 286 285 285 285 284 284 283 283 284 283 283 284 283 283 283 283 282 282 282 282 282
331 328 331 331 323 316 314 312 311 311 311 311 312 313 314 313 313 313 311 310 309 308 312 313 310 309 309 308 308 307 304 302 301 300 300 299 297 297 296 296 296 296 296 296 293 291 291 291 291 291 291 291 291 290 290 290 289 289 288 288 288 287 287 287 286 286 285 285 284 284 283 283 283 283 283 282 282 283 282 282 282 282 282 282 281 281
327 331 330 321 314 312 312 312 312 310 311 313 312 313 316 314 314 317 315 314 312 310 311 311 309 307 307 308 308 307 306 304 303 301 301 300 298 297 297 297 296 296 296 296 293 291 290 290 291 291 291 291 290 290 290 289 289 289 288 288 288 287 287 286 286 285 285 285 284 284 283 283 283 282 282 282 282 282 282 281 281 281 281 281 281 281
325 324 316 313 313 312 314 314 312 311 315 319 316 314 316 315 314 315 314 313 313 315 312 308 309 311 309 307 308 307 304 303 303 302 301 300 299 298 298 297 296 296 295 294 293 291 289 289 290 291 291 291 290 290 290 289 289 289 288 288 287 287 287 286 286 285 285 284 284 283 283 283 282 282 282 282 282 281 281 281 281 281 281 280 280 280
324 315 308 313 314 312 313 316 318 315 316 323 321 315 315 315 314 314 314 312 314 318 313 308 313 318 313 309 309 308 306 304 302 302 301 300 299 298 298 297 296 296 295 294 292 291 289 289 290 291 290 290 290 290 289 289 289 288 288 288 287 287 286 286 286 285 285 284 283 283 282 282 281 281 281 281 281 281 280 280 280 280 280 280 280 280
317 309 310 317 317 315 314 316 321 317 315 321 320 316 316 315 313 312 312 312 316 318 310 308 314 316 312 311 311 310 310 308 304 302 301 300 299 298 297 297 296 295 294 293 292 291 289 289 290 290 290 290 290 290 289 289 289 288 288 288 287 287 286 286 285 285 284 284 283 282 282 281 281 281 281 280 280 280 280 280 280 280 280 280 279 279
313 310 313 316 317 318 315 319 322 315 318 323 316 314 315 312 312 312 309 310 314 312 308 309 309 309 309 310 310 309 309 308 305 303 301 299 298 298 297 297 295 294 294 293 293 292 289 288 290 290 290 290 290 290 289 289 289 288 288 287 287 286 286 286 285 284 284 283 282 282 281 281 281 280 280 280 279 279 279 279 279 279 279 279 279 279
314 315 317 316 315 316 318 326 322 314 319 321 311 309 310 308 309 309 307 309 310 307 310 311 307 310 313 311 309 306 307 309 308 306 303 299 298 297 297 296 295 294 293 293 293 292 289 289 290 291 290 290 290 290 289 289 288 288 288 287 287 286 286 285 285 284 283 283 282 282 281 281 280 280 280 279 279 279 279 279 279 279 279 279 278 278
313 313 316 318 317 317 321 322 315 313 316 314 309 310 312 313 312 309 308 310 311 310 313 312 309 313 318 316 312 308 309 312 310 307 304 301 299 297 297 296 294 293 293 293 292 290 288 290 291 290 290 290 290 289 289 289 288 288 287 287 286 286 285 284 284 284 283 282 282 281 281 280 280 279 279 279 278 278 278 278 278 278 278 278 278 278
312 307 309 314 315 318 319 312 306 310 311 308 311 315 316 316 313 311 310 311 314 316 317 314 310 313 318 317 315 314 317 317 313 311 307 302 299 297 296 295 294 293 292 292 292 289 288 290 291 290 290 290 290 289 289 289 288 288 287 286 286 285 285 284 283 283 282 282 281 281 280 280 279 279 278 278 278 278 278 277 278 278 278 277 277 277
313 308 311 313 311 312 315 311 306 308 309 310 315 317 318 320 317 316 314 313 317 323 320 312 307 309 315 316 313 314 315 313 312 313 312 307 300 297 296 295 293 292 292 291 292 290 289 289 289 289 290 290 289 289 289 289 288 287 286 285 285 285 284 283 283 282 282 281 281 280 280 279 279 278 278 278 278 277 277 277 277 277 277 277 277 277
317 314 313 310 308 309 315 315 310 310 312 312 314 318 322 324 324 324 319 316 320 322 313 304 306 310 311 312 311 311 312 309 308 308 309 308 302 297 296 294 293 292 291 291 291 291 291 290 288 288 289 289 289 289 288 288 288 286 286 285 284 284 283 283 282 282 281 281 280 279 279 279 278 278 278 277 277 277 277 277 277 277 276 276 276 276
322 319 312 309 310 310 314 315 314 317 314 310 313 321 326 326 326 327 323 320 321 320 308 300 307 312 311 313 311 309 310 309 306 304 305 305 302 298 296 294 293 291 291 291 290 291 292 290 287 287 289 289 289 289 288 288 287 286 285 284 284 283 283 282 282 281 280 280 279 279 278 278 278 277 277 277 277 276 276 276 276 276 276 276 276 276
322 321 316 314 314 311 309 312 319 322 314 308 312 318 322 326 327 326 326 324 320 319 310 302 309 317 316 315 312 308 307 305 303 302 301 302 301 298 296 294 292 291 291 291 291 292 291 288 287 288 289 289 289 289 288 287 286 285 285 284 283 283 282 282 281 280 280 279 279 278 278 277 277 277 276 276 276 276 276 276 276 275 275 275 275 275
318 320 318 310 308 308 308 310 314 319 316 309 309 313 318 322 323 321 321 319 314 314 312 307 311 315 311 309 308 306 303 299 299 299 298 300 300 297 295 293 291 290 291 290 290 292 290 287 287 289 289 289 289 288 288 287 286 285 284 283 283 282 281 281 280 280 279 278 278 277 277 277 276 276 276 276 275 275 275 275 275 275 275 275 275 275
317 321 314 305 306 305 304 306 308 315 318 310 308 314 315 312 316 319 317 312 309 312 315 313 312 312 312 311 306 302 301 299 298 298 297 299 297 296 294 292 291 290 290 290 290 291 290 286 286 289 289 289 288 288 287 286 285 284 283 283 282 281 281 280 279 279 278 277 277 277 276 276 276 275 275 275 275 275 275 275 274 274 274 274 274 274
316 318 312 307 311 305 298 302 305 306 310 313 315 314 308 306 310 316 317 314 310 312 316 314 311 312 315 313 304 301 302 302 300 297 296 295 295 294 294 292 291 291 290 290 290 291 290 286 286 288 289 289 288 288 287 286 285 284 283 282 281 280 280 279 278 278 277 277 276 276 276 275 275 274 274 274 274 274 274 274 274 274 274 274 274 274
315 315 314 305 307 304 299 304 309 304 302 309 312 307 307 311 312 312 313 316 315 314 316 316 313 313 315 316 311 307 306 306 302 296 294 294 294 293 293 292 291 290 290 290 290 291 290 286 286 288 288 288 288 287 286 285 284 283 282 281 280 280 279 278 278 277 276 276 275 275 275 274 274 274 274 274 273 273 273 273 273 274 274 274 274 274
313 315 317 305 301 304 303 307 315 309 301 302 304 301 305 311 313 312 312 315 318 317 316 317 316 315 315 319 319 314 311 309 303 296 293 294 294 293 292 291 290 290 290 290 289 290 290 287 286 288 288 288 287 286 285 284 283 282 281 280 280 279 278 278 277 276 275 275 274 274 274 274 273 273 273 273 273 273 273 273 273 273 273 273 273 273
313 314 317 308 301 305 308 308 313 313 307 305 305 305 304 304 308 311 309 310 316 316 315 316 317 315 314 318 318 315 313 309 303 298 295 293 293 292 291 291 290 290 289 289 289 290 290 287 286 288 288 287 287 286 284 284 282 281 280 280 279 278 277 277 276 275 275 274 274 273 273 273 273 272 272 272 272 272 272 273 273 273 273 273 273 272
315 315 316 312 307 308 310 308 307 309 310 308 308 308 306 304 307 311 310 309 310 312 314 317 316 314 311 314 315 314 313 307 302 299 295 293 293 292 291 291 290 290 289 289 289 290 290 287 286 287 287 286 286 285 284 283 281 281 280 279 278 277 276 276 275 274 274 273 273 273 272 272 272 272 272 272 272 272 272 272 272 272 272 272 272 272
315 316 315 315 313 309 306 304 304 305 306 306 307 307 307 306 308 312 314 312 309 308 310 313 314 314 310 312 313 311 309 306 301 297 296 295 293 291 291 291 290 289 289 289 289 290 289 286 286 287 286 286 285 284 283 282 281 280 279 278 277 276 275 275 274 273 273 272 272 272 272 272 271 271 271 271 272 272 272 272 272 272 272 272 272 272
313 315 314 315 317 311 304 303 304 302 302 305 307 306 305 306 307 310 312 313 313 311 309 311 313 313 308 308 307 303 302 302 298 295 296 296 293 291 291 290 290 289 289 289 289 289 287 285 285 285 285 285 284 283 282 281 280 279 278 277 276 275 274 274 273 272 272 272 271 271 271 271 271 271 271 271 271 271 271 271 271 271 271 271 271 271
313 316 316 314 317 316 310 308 308 305 302 305 307 305 305 305 306 309 309 310 312 311 310 311 314 313 308 304 301 298 298 300 296 293 295 295 293 291 290 290 289 289 289 289 289 289 288 287 285 284 283 284 283 282 281 280 279 278 277 276 275 274 273 273 272 272 271 271 271 271 271 271 271 271 271 271 271 271 271 271 271 271 271 270 270 270
314 318 316 314 316 316 313 314 316 311 304 303 305 304 304 305 306 308 309 309 310 310 310 311 312 313 309 305 302 299 298 299 296 294 293 293 292 291 290 290 289 288 289 289 288 289 289 288 286 283 282 283 282 281 280 279 278 277 276 275 274 273 272 272 271 271 270 270 270 270 270 270 270 270 270 270 270 270 270 270 270 270 269 269 269 269
318 318 314 313 315 313 312 312 314 311 307 307 307 305 304 305 305 307 309 310 311 311 310 310 311 311 311 308 306 304 302 299 296 296 294 292 292 291 290 290 289 288 288 288 288 288 287 288 287 283 281 282 282 280 279 278 277 276 274 274 273 272 271 271 270 270 269 269 269 269 270 270 270 269 269 270 270 270 270 269 269 269 268 268 268 268
319 316 312 312 313 312 312 311 311 311 311 310 309 306 304 304 304 306 308 309 310 311 311 311 310 311 311 310 309 309 307 301 296 296 295 293 292 291 290 290 289 288 288 288 288 288 287 287 287 283 281 281 281 279 278 277 275 274 273 273 272 271 270 270 269 269 268 268 268 269 269 269 269 269 269 269 269 269 268 268 268 267 267 267 267 267
316 314 313 313 312 311 311 311 312 313 311 311 311 310 307 304 303 304 306 307 309 310 311 311 311 311 311 310 309 310 309 305 300 297 295 293 292 290 289 289 289 288 288 288 288 287 286 287 287 283 280 280 280 278 277 275 274 273 272 271 271 270 269 269 268 268 268 268 268 268 269 268 268 268 268 268 268 267 267 267 266 266 266 266 266 266
312 313 312 312 312 312 311 311 311 311 310 311 311 311 310 308 305 303 304 305 306 308 309 309 310 310 310 309 309 308 309 308 303 297 295 293 291 291 289 289 289 288 288 288 287 286 286 286 285 282 279 278 278 277 275 274 273 272 271 270 270 269 268 268 268 267 267 268 268 268 268 268 268 268 268 267 266 266 266 265 265 265 265 265 265 266
308 313 314 312 313 313 312 311 311 310 310 311 310 310 311 310 308 306 305 304 305 306 307 307 308 309 308 308 308 307 307 307 302 298 295 292 291 290 289 288 289 288 288 287 287 286 285 285 284 281 278 277 277 275 274 273 271 270 270 269 269 268 268 268 267 267 267 267 268 268 267 267 267 267 266 266 265 265 265 265 265 265 265 265 265 265
307 311 314 312 313 314 312 312 312 310 309 309 310 310 310 310 311 310 308 307 306 307 307 307 308 308 307 307 307 306 306 306 304 300 295 292 291 290 289 289 289 289 288 287 286 285 285 284 283 281 278 276 275 274 272 271 270 269 269 268 268 267 267 267 266 266 267 267 267 267 267 266 266 265 265 264 264 264 264 264 264 264 265 265 265 266
307 309 312 312 313 313 312 311 311 310 310 311 311 311 310 309 310 309 310 309 308 308 309 309 309 308 308 308 308 307 306 304 303 300 296 293 291 289 289 289 289 289 287 286 286 285 284 283 281 279 276 275 274 272 271 270 269 268 268 267 267 267 267 266 266 266 266 267 267 266 266 265 265 264 264 264 264 264 264 264 264 264 265 265 266 266
306 308 310 311 314 313 309 307 309 310 312 314 313 313 313 311 310 310 310 310 309 309 309 309 309 309 308 309 308 308 307 303 301 299 296 294 291 290 289 289 289 288 287 286 285 284 283 281 278 276 275 274 272 271 270 269 268 267 267 268 267 267 266 265 265 266 266 266 266 265 265 264 263 263 263 263 263 263 263 264 264 265 265 266 266 266
305 306 309 310 312 310 306 307 311 313 314 313 313 314 313 312 311 310 309 309 309 308 308 308 308 308 308 308 307 307 307 303 299 297 295 294 292 291 290 289 288 288 286 285 284 283 281 278 276 274 273 272 270 269 268 267 267 267 268 267 266 265 265 265 265 265 265 265 265 264 263 263 262 262 262 263 263 263 263 264 264 265 266 266 266 267
306 305 307 310 310 308 308 310 313 314 313 312 312 310 308 307 307 307 308 309 307 307 307 307 307 307 307 307 307 306 303 299 296 295 294 292 292 291 290 289 288 287 286 285 283 281 279 276 275 273 272 270 269 268 267 266 266 267 268 267 265 264 264 264 264 264 264 264 264 263 262 262 262 262 262 262 262 263 263 264 265 265 266 266 266 266
307 307 307 309 310 310 311 312 312 313 313 312 312 309 307 306 306 307 310 310 308 308 307 306 306 306 305 306 305 301 296 294 295 295 292 290 290 290 290 289 287 286 285 283 281 279 277 275 274 272 270 269 268 267 266 265 266 267 267 266 264 264 264 264 264 264 263 263 262 262 261 261 261 261 261 262 262 263 264 264 265 265 265 265 265 265
306 308 309 310 312 312 313 313 313 314 314 313 311 309 307 306 305 306 309 309 308 308 308 307 306 305 305 305 301 296 294 296 299 297 293 289 288 289 288 287 285 284 281 278 276 275 274 273 272 270 269 268 267 265 265 266 267 267 266 264 263 263 263 263 263 262 262 262 261 260 260 260 261 261 261 262 262 263 264 264 265 265 265 265 265 265
304 307 309 310 312 313 313 314 314 315 315 313 310 305 302 303 305 306 308 309 308 308 308 307 306 305 305 303 296 294 297 300 301 300 294 289 286 287 286 284 282 280 277 275 274 273 271 271 269 268 268 267 265 264 265 266 267 266 264 263 263 262 262 262 262 261 261 261 260 260 260 260 261 261 261 262 262 263 264 264 264 264 264 264 264 264
304 305 307 309 311 312 313 314 313 313 313 311 306 300 297 301 306 309 311 311 309 310 309 306 305 305 304 299 294 295 299 301 301 298 292 286 285 284 283 281 279 277 275 274 273 272 270 269 268 267 266 265 264 264 265 266 266 265 263 262 262 262 262 261 261 261 260 260 259 260 260 261 261 261 261 262 263 263 263 264 264 264 264 263 264 264
304 305 306 307 310 311 312 314 313 313 313 307 301 297 297 302 307 310 312 311 309 310 308 305 305 304 300 296 294 295 298 298 297 293 286 284 284 282 280 279 277 275 274 272 271 271 269 268 268 267 265 264 264 265 265 266 265 264 262 262 261 261 261 261 261 260 260 259 259 260 261 261 261 261 262 262 263 263 263 263 263 263 263 263 264 264
305 305 305 307 309 308 311 313 311 313 312 304 297 296 299 306 310 310 310 309 310 311 306 302 303 301 297 295 294 295 296 294 291 287 284 284 283 280 278 277 275 274 272 271 270 269 268 267 266 265 264 263 264 265 265 265 265 263 262 261 261 261 261 261 260 260 259 259 259 260 261 261 261 261 262 262 262 262 262 263 263 263 263 263 264 264
307 306 305 306 308 307 309 310 310 313 310 301 296 297 300 306 310 309 308 307 308 309 306 301 299 298 296 294 294 293 293 290 287 285 284 283 281 279 277 276 274 273 272 270 269 269 267 266 265 264 263 263 264 264 264 265 264 262 261 261 261 261 262 262 260 259 259 259 259 260 261 261 261 262 262 262 262 262 262 262 263 263 263 263 264 265
309 308 307 307 308 308 309 308 310 312 306 299 300 303 302 303 307 309 308 306 304 303 302 299 297 295 294 294 293 291 290 288 286 285 284 282 280 277 276 275 274 272 271 270 269 268 267 265 264 263 262 263 263 263 263 264 264 262 261 261 261 262 263 262 260 259 260 260 259 260 260 261 261 262 262 262 262 262 262 262 262 262 263 264 264 265
311 311 311 310 308 309 310 309 309 308 302 298 303 307 304 301 304 307 308 307 303 298 296 297 296 293 292 293 292 290 289 287 285 284 284 281 279 277 275 274 273 271 270 268 268 267 266 265 264 263 262 262 262 262 263 264 264 263 262 261 262 262 262 261 260 260 259 259 259 260 260 261 261 261 261 261 261 261 261 261 262 262 263 264 265 265
312 311 312 311 309 308 309 309 307 305 301 299 301 304 304 302 303 304 305 304 302 297 295 295 295 293 292 292 291 289 288 286 285 284 283 281 279 277 275 274 272 270 269 267 267 266 265 264 264 263 262 261 262 262 262 263 264 263 262 262 262 262 260 260 259 259 259 259 259 260 260 260 261 261 261 261 261 261 261 261 261 262 263 264 265 265
311 309 308 310 311 310 310 311 308 305 304 301 299 300 302 301 300 300 301 301 300 297 294 294 294 293 292 292 291 290 288 286 285 284 283 281 278 277 275 273 271 269 268 267 266 264 264 263 262 262 262 261 261 262 262 263 263 263 263 263 263 262 261 260 258 258 258 259 259 260 260 260 260 260 261 261 261 261 261 261 261 262 263 264 265 266
311 309 307 308 309 310 312 312 310 307 306 303 300 299 300 300 298 297 298 298 298 296 294 294 294 292 291 291 291 290 287 285 285 284 282 280 278 276 274 273 271 269 267 266 265 264 264 264 262 261 262 261 261 262 263 263 263 264 263 263 262 262 262 260 259 258 258 259 259 259 260 260 260 260 260 260 260 260 260 260 261 262 263 264 265 267
310 309 308 308 308 309 310 311 309 307 307 306 302 299 299 300 299 297 295 295 296 295 293 293 292 291 291 291 290 289 287 286 285 284 282 280 278 276 274 272 270 268 267 265 264 264 264 264 263 262 262 261 261 262 263 263 264 264 263 262 262 262 262 260 259 259 259 259 259 259 259 259 259 259 259 260 260 260 260 260 261 263 264 264 266 267
310 310 310 309 309 309 310 310 309 308 309 309 306 302 300 300 300 298 295 294 295 295 293 292 291 291 291 291 290 289 288 286 284 283 282 280 278 276 274 271 269 267 265 264 263 263 264 264 264 263 262 261 262 262 263 264 264 263 262 262 262 261 260 260 259 259 259 258 258 259 259 259 259 259 259 259 259 260 260 260 261 262 263 264 266 267
312 313 311 310 311 312 311 311 310 309 310 310 309 306 302 300 300 298 296 294 294 294 293 293 292 291 290 290 290 289 288 286 284 283 282 280 278 275 272 270 268 266 264 263 263 262 262 262 263 262 262 261 262 263 264 264 263 262 261 261 261 260 259 259 259 259 258 258 258 258 259 259 258 258 258 259 259 259 259 259 260 261 262 264 264 266
Wind_Speed
4 3 2 4 6 7 7 6 6 5 5 3 3 4 6 5 7 7 4 5 1 2 8 8 8 12 16 16 10 9 10 11 11 10 10 10 11 11 11 11 11 10 9 15 21 21 17 15 12 10 9 8 7 5 4 5 6 9 12 15 18 19 20 21 23 26 26 26 26 25 25 26 29 31 31 32 32 31 30 30 32 32 31 31 32 33
5 3 5 8 9 7 6 6 5 4 4 2 3 4 5 5 8 9 4 5 1 3 7 5 6 11 14 16 12 7 10 13 15 15 14 14 13 12 13 13 11 8 7 12 17 19 17 14 12 10 9 8 7 4 3 4 6 9 13 16 18 19 20 21 23 24 24 24 23 22 23 25 27 27 27 27 28 27 27 28 30 30 29 30 32 33
4 3 9 8 5 5 3 4 5 3 3 2 2 2 5 4 4 8 4 5 2 2 6 6 5 10 13 18 16 9 11 13 16 18 17 16 16 14 14 14 12 10 8 10 12 16 18 15 13 11 9 8 7 4 2 4 7 10 14 16 18 19 20 21 22 23 23 23 22 22 24 25 26 25 24 24 25 25 26 28 29 28 29 31 32 33
1 5 7 3 6 7 2 2 5 2 1 4 3 2 5 4 1 4 4 5 4 2 6 8 7 8 11 17 18 10 11 12 13 16 15 13 15 16 16 14 15 15 12 12 11 12 16 16 14 12 10 9 8 4 2 4 7 10 13 15 18 19 20 20 21 22 23 24 25 25 26 26 25 25 25 25 24 25 28 32 31 30 31 33 34 34
6 5 3 6 5 6 3 1 3 3 3 4 6 6 6 6 5 6 3 5 6 4 4 7 8 6 7 13 14 5 4 9 9 10 12 11 12 11 11 13 14 14 13 14 12 10 13 15 14 12 11 10 9 5 1 4 7 10 12 15 17 18 19 20 21 22 23 25 27 28 29 28 27 27 28 28 30 31 33 35 36 35 34 34 33 33
7 4 4 6 3 4 5 3 4 6 3 5 5 9 9 8 7 5 4 5 5 4 4 6 6 6 3 6 11 4 3 8 5 7 13 12 10 9 11 13 12 11 11 12 12 11 13 15 15 13 11 12 10 5 1 4 7 9 12 15 17 17 19 20 21 22 24 25 26 26 27 26 26 26 26 26 30 35 36 36 37 36 36 35 34 33
3 1 4 6 5 4 4 4 6 7 3 4 4 6 7 4 2 2 3 3 1 4 2 3 2 8 4 4 11 8 7 11 6 8 13 11 10 12 13 12 11 12 11 10 10 11 12 15 16 13 13 13 10 5 1 4 6 8 11 14 16 18 19 19 20 21 23 24 24 24 23 23 23 23 26 27 29 33 35 36 37 37 36 35 34 35
3 2 4 5 5 5 5 5 6 8 6 3 4 4 5 4 2 3 2 0 3 3 4 3 4 7 7 6 10 7 7 14 11 10 12 10 12 14 13 12 13 14 12 10 10 10 11 15 17 15 14 14 10 5 1 4 6 8 11 15 17 18 18 18 19 20 22 22 23 23 23 23 23 24 28 31 31 33 34 35 38 39 39 37 36 36
3 4 4 5 4 4 6 6 7 10 5 5 4 4 5 5 3 4 3 2 2 3 6 5 6 5 9 5 3 2 4 13 13 14 14 12 14 14 12 12 13 13 11 10 10 10 12 16 18 16 14 14 10 4 1 3 5 7 11 15 17 17 18 17 18 20 21 22 22 23 23 25 25 26 28 31 32 33 34 35 38 39 41 41 39 38
1 4 7 7 5 6 5 3 6 9 5 3 4 4 4 5 4 3 2 1 2 2 9 7 7 4 8 4 3 1 3 10 12 12 12 12 13 12 11 12 12 11 9 9 10 11 15 19 18 15 14 14 10 4 2 3 5 7 11 15 16 16 16 17 18 19 21 21 21 23 23 25 27 28 29 31 32 33 34 37 39 40 41 42 43 41
3 1 3 4 4 6 4 2 1 4 3 2 5 4 4 4 4 3 2 3 3 3 10 9 11 8 7 3 5 4 5 8 8 8 8 8 10 10 11 12 13 11 9 9 9 11 16 19 17 14 15 14 9 4 3 4 5 7 11 14 15 16 15 16 18 18 19 20 21 22 23 24 27 28 29 29 31 33 35 37 39 41 42 43 44 43
5 1 2 2 2 4 6 4 2 2 2 4 4 4 3 4 4 4 4 4 1 5 7 5 8 9 8 6 5 6 7 7 7 8 8 9 10 11 12 12 12 11 10 9 9 9 12 13 13 13 15 14 10 5 4 5 6 8 11 12 14 16 15 16 17 18 19 20 21 23 23 25 26 27 27 28 31 33 34 36 39 41 43 45 46 45
3 4 3 2 1 5 6 4 2 5 4 4 4 4 3 4 4 3 3 0 3 7 3 1 3 5 11 10 8 10 12 11 10 8 8 9 10 11 12 12 11 10 10 10 9 9 8 8 11 14 16 15 11 7 6 6 7 8 11 11 14 16 16 16 17 18 20 21 22 23 24 26 26 26 27 28 31 33 33 35 38 40 42 45 47 46
4 4 1 1 2 4 8 5 2 2 1 5 4 3 3 1 1 4 4 2 5 6 2 3 3 4 9 8 11 16 17 14 8 7 8 7 9 12 13 12 10 10 11 10 9 9 8 8 12 15 17 16 12 9 8 8 8 9 11 12 14 17 17 17 18 19 20 22 23 24 25 26 26 27 28 29 31 33 35 36 37 40 42 44 47 47
4 6 3 6 2 4 9 7 5 5 4 4 4 4 5 5 3 4 4 4 6 6 3 3 2 4 4 3 7 12 11 8 4 5 8 6 8 9 9 10 10 10 10 9 9 9 8 11 14 16 17 16 13 11 10 9 8 9 11 12 14 17 17 18 18 19 21 23 24 25 25 26 26 27 28 29 31 32 35 37 39 41 43 44 47 48
3 8 5 2 1 4 6 3 4 6 3 2 3 4 3 5 5 3 3 4 2 6 5 3 4 6 4 4 6 5 5 4 4 5 5 6 7 7 7 9 10 10 10 9 10 9 9 12 15 17 17 16 14 11 10 8 8 10 11 12 14 16 17 18 19 20 22 23 24 25 25 26 26 27 28 31 32 33 35 37 40 42 44 45 46 48
2 6 4 1 1 2 2 2 1 3 3 2 3 3 4 4 5 2 3 1 4 3 6 3 6 7 4 6 6 4 4 5 4 5 5 6 6 8 9 10 11 11 11 10 10 9 8 11 14 17 18 17 14 12 10 8 9 10 11 12 14 16 17 19 20 21 22 23 24 25 25 26 27 28 29 31 33 35 36 37 39 42 44 45 46 47
3 4 3 2 1 1 0 1 2 2 3 5 3 5 3 2 4 3 1 3 2 4 6 4 9 11 4 5 3 3 4 10 7 6 6 5 6 9 10 10 11 11 10 10 9 8 9 11 15 18 18 15 13 11 9 8 9 11 11 12 14 16 18 20 21 22 22 23 24 25 25 26 27 28 30 31 33 35 36 38 40 41 44 45 46 47
2 3 4 1 2 3 3 1 1 3 2 5 3 3 2 3 2 2 2 2 2 4 7 5 8 11 8 6 5 3 8 12 9 7 7 8 10 11 10 10 11 10 9 9 9 8 8 10 15 18 17 15 13 10 8 8 10 11 12 13 14 16 19 21 22 22 22 23 24 25 26 27 27 28 30 31 33 34 36 38 40 41 43 44 45 45
3 2 4 1 1 2 3 1 4 2 1 2 1 2 0 3 4 3 3 3 3 3 7 6 7 12 10 6 7 9 11 11 10 8 10 12 13 12 10 10 11 11 11 10 9 8 7 10 16 18 16 14 12 10 8 9 10 11 12 13 15 19 20 21 22 22 23 24 24 26 27 27 28 29 30 31 33 34 36 37 39 40 41 43 44 45
3 2 4 2 3 1 2 5 8 9 6 3 2 2 2 2 1 1 2 2 3 4 6 3 6 16 11 5 9 12 10 11 11 11 12 13 13 12 10 11 12 12 12 10 9 8 8 10 15 17 15 14 11 9 8 9 11 12 12 13 17 19 20 22 22 23 24 25 26 27 27 28 29 30 31 32 32 34 35 37 37 39 40 41 43 43
4 3 4 2 2 5 5 3 4 8 7 7 7 7 7 6 3 2 4 4 3 5 6 3 5 17 9 5 7 9 8 9 11 12 11 11 13 12 11 12 13 12 11 10 9 9 8 9 13 15 15 13 10 9 8 9 11 11 12 15 17 18 19 21 22 23 25 26 26 27 28 30 31 31 32 32 33 34 35 36 37 38 39 39 40 38
3 2 3 4 5 6 5 3 1 2 2 3 5 5 6 6 6 6 7 5 2 5 5 4 3 15 7 6 6 6 6 8 10 11 11 10 11 11 11 11 11 10 10 10 9 8 8 10 13 15 14 13 10 9 9 10 10 11 13 14 15 17 19 20 22 24 24 25 27 28 30 31 32 32 33 33 34 34 35 36 36 36 36 37 37 37
2 2 3 5 4 2 3 4 3 4 3 3 6 5 6 8 9 8 6 3 2 5 4 4 7 16 5 4 3 2 2 5 7 9 11 9 8 9 11 11 10 10 9 9 9 7 7 10 11 12 12 11 10 9 9 8 9 10 12 13 14 17 19 21 22 23 24 25 27 29 30 32 33 34 34 33 35 36 36 36 35 35 34 35 37 37
3 3 3 4 5 4 4 3 3 3 1 5 6 5 8 12 9 3 1 1 4 7 7 4 13 17 4 3 2 2 0 5 6 7 9 8 7 9 10 10 10 9 9 9 9 8 7 8 8 9 11 11 9 9 7 7 8 10 12 12 14 16 18 21 22 22 23 25 28 30 30 32 33 34 34 34 35 35 35 35 34 34 35 36 37 35
5 4 5 6 8 8 7 5 4 3 3 3 4 7 12 14 14 8 2 4 10 9 9 9 18 19 11 2 2 2 4 6 7 7 6 7 8 9 9 10 10 10 11 12 10 8 8 7 6 8 10 10 8 7 6 6 8 10 11 12 14 16 18 20 20 22 24 26 29 32 33 35 36 36 35 35 35 34 35 35 36 36 36 35 34 33
3 3 8 11 12 13 14 10 5 6 4 5 7 12 15 16 17 12 5 8 11 7 8 17 23 22 23 18 7 4 9 9 8 8 7 8 8 8 10 11 11 10 11 11 10 8 8 7 7 7 9 9 7 5 5 6 8 9 11 12 14 16 17 19 20 23 27 28 30 33 36 38 39 37 35 33 33 34 36 37 37 36 34 32 32 32
3 5 13 15 16 18 18 15 7 8 6 9 10 13 15 15 15 13 12 17 13 4 10 24 24 20 29 29 16 11 13 10 8 10 10 10 10 10 10 10 11 10 9 9 9 9 9 8 6 6 8 9 6 4 5 7 8 8 10 12 14 15 16 18 22 25 27 29 30 33 36 38 37 33 30 31 34 35 36 37 37 34 31 31 31 32
4 9 15 14 15 19 19 18 11 6 8 10 11 17 16 13 15 17 22 24 17 11 19 27 23 23 30 28 17 16 16 11 11 13 11 10 9 9 9 10 12 12 11 11 10 10 9 8 6 6 8 8 6 5 6 6 7 7 10 12 13 15 16 19 22 24 26 27 29 32 35 36 33 30 29 32 34 34 34 36 35 32 31 31 32 33
4 10 13 9 11 18 19 18 11 8 12 12 17 26 21 13 17 21 22 23 22 22 26 27 26 30 32 24 19 21 17 9 9 10 8 9 9 10 11 13 13 14 14 13 11 10 9 8 7 7 7 7 6 6 6 6 6 8 10 12 14 16 18 20 22 23 24 26 29 32 34 33 30 28 30 33 35 35 35 35 34 34 35 35 35 35
5 8 7 4 6 16 18 13 8 9 12 14 22 31 25 15 18 21 20 19 20 23 27 28 27 28 27 22 21 22 15 7 8 8 9 9 10 12 13 13 14 15 14 12 10 9 8 7 7 6 6 7 7 6 5 5 6 7 9 11 14 17 19 20 21 22 23 26 29 31 31 30 27 28 32 34 35 36 36 36 37 38 38 40 40 40
6 4 1 3 5 14 13 5 4 5 5 13 27 34 27 18 18 20 18 17 19 22 25 24 21 20 23 22 20 16 10 10 12 11 10 9 11 13 14 15 16 15 14 12 11 10 9 8 7 6 7 8 8 6 4 4 5 6 8 11 14 17 19 20 20 22 23 26 28 29 29 29 29 31 33 34 35 37 37 38 39 39 39 41 41 42
6 5 3 4 6 12 6 4 5 3 1 12 22 24 22 20 20 20 19 20 23 22 19 18 17 20 22 20 17 15 10 11 12 11 10 10 11 14 15 16 17 16 14 13 11 10 9 8 7 8 9 9 8 5 2 3 4 5 8 12 15 17 18 19 20 22 23 25 27 28 28 30 31 32 33 34 35 37 37 37 38 39 40 42 42 40
7 8 6 5 6 8 3 6 6 2 8 13 8 6 13 18 19 22 22 24 26 21 17 18 19 22 23 18 17 19 14 10 10 10 10 10 11 13 15 15 15 14 13 11 10 10 8 7 8 11 12 10 7 3 1 2 3 6 10 13 15 16 17 19 20 21 24 26 27 28 30 31 31 32 33 35 36 37 36 36 38 39 39 38 36 35
9 9 6 4 4 3 3 5 1 9 14 11 2 4 9 12 13 16 18 23 25 21 18 20 22 25 26 21 19 18 13 9 9 10 10 11 12 13 14 14 13 13 12 11 11 9 8 8 11 13 12 9 5 3 1 2 5 9 12 14 15 15 16 18 20 22 23 26 28 29 30 31 31 32 34 36 37 36 37 37 37 38 37 33 31 32
10 8 4 4 3 1 2 5 10 12 11 14 10 5 4 2 3 4 10 21 24 18 16 20 23 25 25 23 19 12 5 3 4 6 9 11 12 13 14 14 14 15 14 12 11 10 10 12 14 15 13 8 6 4 1 4 8 11 13 13 14 15 16 17 19 21 23 26 28 29 30 31 31 33 35 37 37 37 37 37 36 34 34 33 32 33
10 8 5 6 6 6 7 10 12 10 14 23 20 8 5 6 7 7 9 20 21 13 14 18 21 21 23 21 12 2 5 3 3 7 8 9 9 10 10 12 14 14 11 11 13 15 17 18 17 15 12 9 6 3 2 5 9 11 12 13 14 15 16 18 19 21 23 26 29 31 31 31 31 34 36 36 36 37 36 35 34 33 33 33 34 33
11 10 10 9 8 9 9 9 10 8 13 21 14 3 5 8 8 8 5 14 19 11 13 15 17 19 21 14 4 6 6 2 7 9 7 7 8 7 7 9 10 10 11 14 17 19 20 19 16 14 12 10 7 2 4 6 9 12 12 12 14 15 17 17 19 21 24 28 31 33 32 31 31 33 34 35 35 37 37 34 33 34 33 33 34 35
12 9 9 8 8 9 9 9 10 10 15 17 6 3 4 7 9 7 1 11 18 10 12 14 16 17 15 7 8 7 5 4 10 10 6 10 10 10 11 10 8 9 14 20 22 22 22 20 16 14 11 9 6 3 5 7 10 11 11 12 13 15 16 17 20 23 26 30 32 31 31 31 31 32 33 34 35 35 36 35 34 34 34 33 34 35
10 7 7 8 10 12 12 11 9 7 11 10 4 5 5 8 11 6 4 13 10 5 10 13 14 13 9 7 9 7 7 8 9 5 8 12 10 9 11 10 9 10 14 20 23 24 23 20 17 14 11 9 6 4 6 8 9 10 11 12 13 14 16 18 22 24 26 29 30 29 29 30 31 32 32 33 35 35 34 34 33 34 35 34 33 33
5 6 7 9 13 14 15 12 7 6 10 6 8 10 8 6 6 3 12 12 4 6 7 9 10 9 7 10 9 9 8 6 1 5 11 13 11 9 8 11 14 16 19 22 24 23 21 18 15 14 11 8 7 6 6 7 9 10 11 12 13 14 17 20 22 24 25 27 27 28 29 30 30 32 32 32 33 34 34 33 32 33 35 34 33 33
4 3 4 8 11 11 12 10 6 8 9 7 12 11 9 6 4 11 10 2 5 7 7 8 9 8 10 12 11 8 4 2 6 10 12 14 12 9 8 10 13 16 19 21 21 22 21 17 15 14 11 8 8 7 6 7 9 10 11 12 13 15 18 20 22 23 24 25 26 27 29 30 30 31 31 32 32 33 35 34 32 33 33 32 31 32
7 4 4 7 8 5 6 7 6 9 8 16 17 7 6 8 13 13 6 1 4 8 7 8 9 9 10 12 10 6 4 5 8 11 12 13 12 10 10 10 9 11 14 17 19 20 20 17 14 14 12 9 8 6 5 6 9 10 10 11 12 15 17 19 21 23 24 24 25 26 27 29 30 30 31 32 33 33 33 34 33 33 32 30 29 30
8 7 6 7 7 5 5 9 11 10 8 19 18 11 14 19 17 10 7 6 5 6 7 7 8 9 11 12 10 8 7 7 9 11 12 12 12 12 12 10 9 10 12 16 20 20 19 17 15 14 13 10 8 6 5 6 8 10 10 10 12 15 17 18 21 22 22 23 24 25 26 28 29 30 30 32 33 32 32 32 33 33 31 30 29 27
13 15 9 5 8 9 9 11 10 5 8 16 18 15 16 20 15 6 6 8 6 6 6 6 7 9 10 10 10 9 8 8 10 12 13 13 13 13 12 10 10 12 14 17 20 19 18 18 18 16 14 10 8 6 5 6 8 9 10 9 11 14 15 18 20 20 21 23 23 24 26 27 28 29 30 30 31 32 32 32 32 31 31 30 28 26
10 10 4 1 5 8 11 12 7 3 8 16 19 13 8 11 10 6 6 9 7 7 7 7 9 10 10 10 10 9 8 10 12 12 12 13 12 10 9 9 10 13 16 18 19 19 18 18 18 17 15 10 7 6 5 6 7 8 8 8 10 12 14 16 18 19 20 22 23 24 25 25 27 29 30 30 29 30 31 32 30 29 30 29 29 33
4 6 5 4 6 6 11 17 14 13 16 17 15 12 9 9 8 7 9 10 7 8 10 9 9 10 11 12 13 12 10 12 14 12 11 12 11 9 9 9 10 12 14 17 19 21 20 18 16 15 14 11 8 6 6 6 6 7 6 7 9 11 13 15 16 18 19 21 23 24 24 24 26 28 30 31 30 29 30 32 30 29 28 28 31 37
5 8 7 8 11 10 15 18 10 7 13 14 11 11 13 13 12 10 10 9 7 9 10 9 8 10 11 11 13 13 12 13 14 14 12 11 11 10 9 9 10 11 13 18 22 21 19 17 16 15 14 12 8 6 6 5 5 5 5 6 8 9 12 14 15 16 18 19 22 23 23 23 25 26 28 30 31 29 29 30 30 29 29 30 31 34
5 7 8 9 12 12 16 20 9 1 9 14 13 15 17 18 16 13 10 8 8 9 9 8 9 11 12 13 13 13 14 13 14 15 14 12 10 10 8 8 10 13 16 20 22 20 18 18 18 16 15 12 9 7 6 5 4 4 4 5 7 8 11 13 14 16 17 18 20 21 22 23 25 25 25 27 29 30 29 27 26 26 29 32 32 31
7 9 9 7 9 10 16 23 18 10 11 17 17 21 24 21 15 13 11 10 10 12 12 11 9 9 11 13 13 14 15 14 13 14 15 13 12 11 10 9 10 12 16 21 21 18 18 19 18 17 15 12 10 8 6 6 4 2 3 4 5 7 9 11 13 15 17 18 19 20 20 22 24 25 25 25 25 28 31 30 27 23 24 28 31 31
13 17 13 11 13 18 21 24 18 13 14 19 19 19 20 17 14 15 15 15 15 15 15 15 13 11 10 10 12 15 16 15 14 14 13 12 12 13 15 16 14 13 17 23 23 19 18 18 17 17 16 13 11 9 7 6 4 2 2 3 4 5 6 9 12 14 15 17 18 18 19 21 22 23 24 25 24 25 28 31 33 30 26 26 29 31
Wind_Direction
82 57 322 250 245 240 227 192 171 175 168 185 211 224 241 243 272 267 240 280 267 220 264 243 237 260 269 272 250 197 197 212 218 217 211 204 204 203 203 206 203 205 210 195 184 179 173 161 146 130 120 125 128 108 66 47 25 16 11 8 7 4 1 1 3 4 4 3 358 352 347 343 342 343 344 344 343 342 339 336 334 333 333 332 330 328
64 66 255 234 222 216 208 179 143 134 155 184 207 241 269 223 255 276 271 304 294 182 267 247 229 258 263 271 264 180 186 216 212 213 215 206 205 206 204 205 203 206 206 189 185 184 180 167 152 138 129 141 145 126 84 41 21 12 9 7 5 1 360 1 2 1 0 359 354 346 341 339 338 339 338 336 335 335 332 330 330 331 330 328 327 325
22 259 249 236 193 142 103 128 135 149 167 175 177 214 276 238 263 290 300 332 352 166 269 270 248 261 264 270 265 208 194 221 213 211 214 204 203 206 203 202 199 201 197 187 188 190 188 175 157 147 142 155 157 136 91 31 14 9 7 4 1 359 359 359 358 357 356 353 349 344 341 339 336 334 333 329 329 329 327 327 328 328 327 325 325 325
283 251 243 201 138 132 96 73 121 116 181 184 177 189 264 263 278 284 298 337 325 235 267 286 274 259 260 266 266 237 208 226 222 217 219 208 206 207 203 200 197 197 191 185 188 191 192 183 164 154 154 162 166 154 92 24 10 5 3 359 358 357 356 355 355 353 351 348 346 343 341 339 335 331 329 327 327 328 327 327 328 327 326 325 324 323
240 244 156 111 112 144 168 322 146 182 279 243 203 203 242 259 231 231 281 334 322 299 307 319 300 261 239 252 264 276 236 244 233 222 227 221 215 208 203 208 204 197 189 184 185 188 193 188 171 160 161 169 174 168 93 23 9 2 358 355 354 353 352 353 352 348 347 347 344 342 341 340 337 332 332 331 330 328 328 328 328 326 325 322 320 319
260 253 130 121 98 126 161 234 207 184 250 294 230 211 226 245 247 261 325 354 347 323 348 11 328 276 245 250 260 279 274 255 226 214 229 222 209 201 204 209 204 201 198 187 183 184 189 185 172 165 169 176 180 173 80 18 5 357 352 349 348 348 351 352 348 345 345 345 342 341 339 337 334 329 328 329 326 324 324 323 322 321 321 319 317 317
262 356 92 132 136 132 167 242 237 171 145 301 246 201 206 214 235 284 354 16 317 272 293 57 324 273 274 246 257 263 263 259 237 221 233 222 207 207 210 205 195 201 200 188 185 182 184 181 174 175 180 182 183 175 78 12 358 350 345 343 343 346 350 348 343 343 343 341 339 337 334 329 326 321 318 320 319 318 318 318 318 317 317 316 316 316
168 90 61 105 120 139 184 243 229 159 135 249 227 140 127 122 152 174 112 217 238 276 288 176 169 271 273 238 256 271 266 268 260 241 237 222 215 216 211 201 197 201 192 182 184 180 182 181 177 179 183 185 183 172 66 2 347 341 338 338 341 344 346 343 338 341 340 337 334 331 328 324 321 317 315 317 317 316 316 315 315 316 315 315 314 314
155 162 186 155 131 180 210 226 193 159 161 243 204 125 103 110 141 153 136 246 279 8 293 228 148 262 274 238 272 338 253 265 264 249 238 222 218 217 208 202 202 200 188 180 179 179 184 181 180 181 181 185 183 173 338 343 335 332 334 335 338 340 340 336 334 338 337 334 330 326 324 321 319 317 314 315 315 314 315 313 313 314 314 314 314 314
168 202 193 155 163 213 217 227 183 167 195 228 142 103 62 72 80 84 108 168 41 9 266 244 154 223 274 220 165 46 238 251 257 252 242 224 218 211 202 203 202 195 187 184 179 179 183 180 180 182 180 185 183 181 294 319 320 322 329 331 331 333 332 329 333 335 332 329 326 323 322 319 317 316 315 314 313 313 314 312 312 313 313 313 314 314
320 317 171 149 187 197 154 100 152 161 175 123 88 53 16 30 49 44 60 79 51 267 259 240 177 188 277 245 175 195 216 222 236 253 250 224 211 202 200 202 198 191 186 185 182 180 182 180 178 180 183 185 185 200 264 291 298 310 321 323 323 325 324 325 331 330 325 325 323 321 320 317 315 314 313 311 310 311 312 310 310 311 311 312 312 312
341 359 224 246 180 132 101 84 42 26 71 92 72 48 5 336 14 18 359 49 68 253 262 247 180 187 242 244 212 234 239 223 220 240 242 218 205 200 200 202 195 189 183 180 181 181 181 179 178 182 186 186 191 217 250 265 276 299 312 315 315 315 319 325 327 324 322 324 323 321 319 315 313 311 309 307 306 307 308 308 308 309 310 310 310 310
307 226 254 308 193 142 113 89 16 354 32 90 89 71 46 333 353 344 311 62 226 248 254 115 139 216 243 243 243 251 256 249 231 232 242 221 203 200 201 201 191 182 183 180 179 180 178 179 181 185 189 190 199 226 241 245 264 291 305 311 309 310 319 325 323 322 324 325 323 321 318 314 312 309 306 305 304 304 305 305 306 307 308 309 309 308
293 293 301 184 261 177 151 154 201 260 149 146 147 125 128 108 348 279 270 269 268 266 237 121 114 263 271 257 233 232 243 252 245 234 243 225 201 203 201 194 185 182 184 180 177 179 179 182 184 186 189 193 205 227 232 236 263 290 305 310 305 310 321 323 321 324 325 324 323 320 316 313 310 308 306 304 303 304 304 304 303 304 305 305 305 305
244 293 223 177 228 183 177 185 164 143 145 175 162 136 150 153 180 236 238 244 282 299 250 163 144 237 256 251 221 229 247 268 287 255 245 234 209 202 193 182 181 186 185 180 178 179 182 185 185 186 188 195 210 224 226 238 271 295 305 306 305 312 319 320 323 326 326 324 322 318 314 312 309 307 305 303 302 302 302 303 302 302 302 302 302 302
205 264 253 214 258 168 183 203 126 117 118 199 136 114 175 181 172 210 231 209 287 320 276 205 211 227 233 260 228 230 275 296 316 281 243 228 211 183 182 185 184 187 184 181 182 180 185 186 184 185 189 200 213 219 223 245 284 301 302 302 306 311 316 321 325 326 325 322 319 316 314 312 310 307 305 303 303 302 302 302 301 301 301 301 301 302
199 272 284 5 327 148 167 239 139 141 177 166 140 183 218 179 137 155 274 333 66 298 273 247 259 272 314 286 228 178 260 268 288 282 235 216 201 182 193 194 186 189 185 182 182 178 183 184 183 186 192 203 212 215 226 259 294 298 298 302 306 310 318 326 328 326 324 321 317 316 314 312 310 307 305 303 303 303 302 301 300 300 301 301 301 301
194 268 270 125 200 260 244 240 8 14 133 131 178 217 199 132 102 110 274 336 38 254 269 278 273 279 296 284 272 106 250 252 244 245 236 219 202 201 207 197 188 189 183 179 179 179 182 181 184 190 197 206 211 215 234 273 295 295 299 303 305 314 324 329 328 325 323 320 317 315 313 311 309 307 306 304 303 303 302 301 301 301 301 301 301 301
147 252 282 102 204 294 8 76 310 337 87 129 198 224 134 151 183 112 153 238 214 240 269 281 285 276 242 238 276 230 223 238 234 220 219 214 209 211 208 194 188 184 179 180 182 184 184 180 185 192 198 205 209 218 244 278 291 296 300 302 310 323 329 329 326 323 321 320 318 314 312 310 308 307 306 305 304 304 302 301 302 302 301 301 301 301
112 203 276 339 267 310 21 158 193 220 47 79 289 315 25 175 177 163 167 191 181 218 267 292 310 284 251 205 231 230 214 220 217 205 211 214 211 211 201 189 188 187 186 185 182 182 182 183 188 193 199 203 207 222 251 280 291 294 297 308 326 333 331 327 325 323 322 321 317 314 312 311 310 308 307 306 306 304 302 302 302 302 301 301 301 300
103 191 245 324 336 258 195 207 193 184 172 171 218 235 232 183 141 232 212 169 174 215 254 276 288 279 270 171 203 226 211 207 204 200 211 216 214 210 198 191 190 189 189 183 179 181 179 186 191 194 200 202 208 231 261 282 286 289 305 327 337 333 327 324 324 324 322 320 317 314 313 312 311 311 311 309 308 305 303 303 303 303 302 300 300 301
154 188 204 175 232 216 218 238 205 196 184 180 197 203 200 187 156 244 254 217 189 224 231 171 261 275 275 146 197 218 193 198 202 200 208 214 213 206 197 197 193 189 188 179 177 180 176 184 190 192 195 198 210 238 263 275 282 300 325 337 333 325 322 322 323 323 321 318 316 314 314 314 314 315 314 312 310 307 307 306 304 304 304 301 300 301
132 135 199 217 222 221 245 299 312 253 248 224 224 197 186 186 172 198 234 225 179 237 235 105 271 269 257 142 193 204 184 201 198 195 206 212 211 202 195 198 194 188 187 177 175 177 176 183 187 187 191 197 215 242 260 274 295 322 333 331 323 319 321 322 322 320 318 317 316 316 317 318 318 318 317 315 313 310 309 308 307 306 304 302 301 300
103 126 213 258 295 353 333 337 6 23 28 260 245 193 181 206 202 204 218 180 157 229 199 102 258 260 257 117 189 177 170 222 204 196 208 209 204 198 195 195 191 187 183 176 177 176 174 179 179 181 189 199 219 242 261 286 316 327 323 319 318 318 321 322 320 318 318 318 319 320 320 320 320 321 319 317 316 313 311 309 308 308 305 303 303 301
192 172 178 250 293 317 330 345 335 331 277 233 239 201 207 222 216 209 77 138 244 223 162 162 251 255 263 65 18 17 278 243 231 213 212 207 198 196 196 194 189 184 178 177 179 174 172 173 172 182 193 203 222 243 270 303 317 313 312 315 319 319 320 320 320 319 320 321 321 322 322 322 323 323 321 319 316 314 313 311 309 309 307 305 305 301
185 178 175 209 234 246 250 233 214 223 209 225 243 218 217 218 211 211 204 217 240 225 174 203 248 260 268 250 90 6 266 248 245 234 227 222 209 198 195 192 188 184 183 182 178 175 175 173 176 187 193 203 222 247 279 301 302 303 310 315 319 320 319 320 321 321 323 324 324 325 326 327 328 326 324 320 317 315 313 312 310 309 309 307 304 301
152 184 204 213 218 229 243 240 184 135 158 201 218 219 217 215 212 212 213 228 235 231 217 233 246 264 273 264 247 251 249 240 235 231 225 222 213 202 198 194 189 187 184 180 175 172 174 176 183 187 190 202 222 248 272 287 294 302 311 315 319 321 320 322 324 325 328 329 329 329 329 330 329 325 320 317 316 314 312 312 311 309 307 305 302 300
113 223 224 222 227 235 247 249 195 145 201 220 215 224 220 213 210 204 213 227 228 224 249 247 248 260 267 266 264 263 258 245 226 223 221 217 209 199 195 190 185 184 180 177 177 176 177 181 184 182 188 199 217 242 261 280 293 303 310 313 317 321 324 327 328 330 332 332 330 330 329 329 326 319 314 314 314 313 311 312 311 308 304 303 301 300
145 236 235 223 235 244 250 253 231 197 241 245 242 246 232 203 202 208 218 227 224 225 247 255 259 260 262 267 273 272 267 251 228 225 219 212 202 188 185 184 183 184 184 183 184 180 178 181 179 176 184 193 206 233 258 281 295 302 308 311 319 327 330 332 332 333 332 330 329 329 328 326 321 315 312 314 314 312 311 312 310 307 303 301 300 298
162 240 240 218 240 250 248 251 245 239 258 262 261 258 247 212 208 216 223 229 229 235 248 259 265 263 264 271 276 273 268 249 229 226 208 197 190 182 187 188 187 190 190 187 185 180 179 178 173 169 172 181 201 229 255 281 296 302 309 318 328 335 337 336 334 333 330 329 329 328 327 323 317 314 314 314 314 313 313 312 310 308 305 303 302 298
206 236 237 187 239 256 252 249 241 237 249 259 262 261 254 236 229 231 230 231 235 242 249 254 260 263 268 271 269 271 270 247 229 219 202 197 189 185 192 191 190 193 191 186 181 177 176 173 165 162 164 179 203 224 246 279 299 304 313 326 335 337 339 338 335 333 331 330 329 327 325 320 315 315 317 316 315 315 315 314 313 311 309 307 306 304
204 224 244 134 224 257 258 241 219 231 247 258 260 258 253 242 237 239 236 228 230 239 246 251 254 259 266 268 269 270 257 230 229 218 202 200 192 189 194 193 194 195 189 184 180 175 175 173 165 163 168 181 198 213 240 285 302 306 320 335 339 340 340 339 337 334 331 330 329 326 323 320 318 318 318 317 317 317 317 316 315 313 311 310 308 307
182 200 210 163 221 259 263 110 114 91 3 260 255 250 245 240 237 242 244 237 231 231 239 246 246 250 259 267 273 270 245 221 226 216 199 198 197 196 198 196 196 193 185 181 176 171 173 170 161 162 169 179 190 202 238 285 298 315 334 343 345 345 343 341 338 334 331 331 329 326 324 323 322 319 318 319 320 320 319 317 316 315 313 311 309 308
191 204 204 176 216 250 221 102 93 138 239 253 251 206 217 224 225 232 239 241 237 231 230 240 250 258 262 263 264 263 253 229 220 213 201 194 193 199 203 201 195 187 180 175 169 168 166 153 146 154 166 176 182 186 220 266 309 339 351 353 352 349 345 340 338 335 333 332 329 328 326 325 322 320 320 322 323 321 320 318 317 317 315 312 311 310
189 201 199 191 218 235 132 99 169 230 237 257 304 146 198 211 214 225 238 245 244 238 234 241 248 254 258 257 257 258 254 232 214 214 209 198 193 194 196 197 188 178 173 168 163 161 150 140 145 155 165 171 166 158 190 308 344 358 4 2 356 351 345 341 339 338 336 332 330 329 328 326 323 323 323 324 324 322 321 320 319 318 318 316 315 315
181 183 190 192 184 202 164 188 229 248 278 293 280 204 165 175 187 217 255 259 253 239 230 237 241 246 253 256 256 255 239 207 222 228 216 206 200 193 189 188 181 175 173 168 160 154 147 150 157 162 164 161 152 148 107 355 2 9 10 5 358 351 347 345 342 340 336 332 329 328 328 327 325 325 325 325 324 323 322 322 322 321 321 320 318 317
181 171 199 210 194 217 228 225 244 278 299 285 269 227 174 193 182 177 245 267 264 232 211 231 241 244 250 254 253 208 107 97 281 252 221 208 203 193 186 179 171 166 159 145 140 142 147 153 157 158 155 145 140 130 38 16 15 16 13 6 0 353 350 348 344 339 335 331 329 330 330 329 327 325 325 325 324 323 322 322 322 324 324 321 319 319
199 189 204 212 207 222 233 241 253 258 259 262 261 198 175 191 173 158 203 269 274 236 196 221 237 241 249 250 200 120 116 149 263 250 210 184 180 164 148 147 146 141 131 127 128 133 142 149 151 148 145 136 131 102 38 30 22 20 16 9 1 355 353 349 343 338 334 331 331 332 331 329 327 325 325 324 324 323 322 322 323 324 324 321 319 318
216 217 216 218 223 224 224 235 237 233 248 257 242 140 159 153 133 111 112 273 271 236 188 207 227 238 245 219 148 138 136 195 253 252 182 159 164 151 138 132 124 118 124 132 138 140 144 148 144 138 135 131 129 102 50 36 27 25 21 10 2 357 353 346 340 336 333 331 331 331 329 329 328 327 325 324 324 323 323 323 323 323 323 321 319 317
212 222 216 217 227 224 222 234 236 237 257 256 174 141 176 149 121 99 278 267 260 179 170 197 219 234 227 162 149 166 180 209 246 245 149 147 148 140 140 136 127 123 124 132 141 144 145 145 139 134 134 135 131 98 54 37 31 32 24 11 4 358 350 342 338 335 331 329 330 330 331 332 330 329 327 325 325 325 324 324 324 324 324 322 319 318
206 213 208 215 225 224 224 234 242 252 255 225 143 149 161 124 98 193 247 252 213 146 176 190 203 214 179 151 167 193 205 218 203 116 134 140 132 127 131 125 122 126 130 135 141 143 141 139 138 138 139 135 117 84 54 41 38 36 26 15 7 356 345 340 337 333 330 330 331 333 335 335 333 331 330 329 327 326 325 326 326 325 325 322 321 320
189 195 206 218 225 226 231 238 249 263 248 162 139 160 160 134 214 232 234 221 138 173 193 185 192 191 165 173 193 196 188 131 116 130 143 144 136 126 122 119 117 123 131 136 141 143 138 135 138 139 134 121 104 82 55 44 45 40 28 18 5 350 343 340 336 333 331 332 335 337 338 337 336 335 333 332 331 329 327 328 329 329 327 324 322 321
176 172 197 210 212 217 234 232 239 258 219 140 132 157 188 197 228 235 232 150 165 181 183 186 195 183 170 188 199 174 135 127 138 145 146 145 142 132 129 132 125 125 134 140 146 148 143 140 145 141 127 112 102 89 60 48 49 44 32 18 359 347 344 341 336 334 335 337 339 341 341 340 340 338 336 335 335 332 329 330 332 332 330 328 326 322
168 183 208 209 196 179 198 213 222 238 185 146 151 186 204 209 224 225 211 223 209 175 177 190 195 186 182 189 183 163 154 149 151 154 147 145 146 141 140 140 127 126 138 144 151 155 151 148 144 132 120 114 109 92 65 51 49 45 35 14 355 349 346 342 339 339 340 341 341 343 344 344 341 339 338 339 337 335 333 333 333 334 332 332 330 323
193 199 208 212 201 195 209 222 223 211 160 171 194 210 204 211 223 199 183 218 216 184 187 186 186 191 188 178 166 162 163 160 160 160 154 151 153 150 146 141 134 136 140 143 151 159 158 150 139 127 120 117 111 97 70 54 47 43 31 8 355 352 346 342 342 343 343 343 344 346 346 344 342 341 340 341 341 338 335 334 334 334 332 333 334 327
210 206 198 189 209 220 245 249 236 181 182 203 219 226 208 214 219 185 187 220 208 180 183 182 183 186 176 164 161 166 171 167 162 162 159 155 154 149 140 133 134 137 139 144 154 159 153 142 132 127 125 120 114 105 81 59 48 42 28 6 358 353 345 343 344 343 344 345 346 349 348 344 342 342 341 342 344 341 338 336 334 332 331 333 335 331
229 204 196 212 199 196 242 246 229 216 220 218 219 231 237 234 224 199 204 217 197 174 186 189 180 173 166 165 168 171 173 166 159 160 160 155 153 150 142 138 142 145 147 154 160 159 149 137 130 131 132 131 129 114 91 72 55 44 27 8 3 353 345 348 347 343 346 349 350 351 350 345 342 342 342 343 343 342 341 339 336 333 332 330 331 330
194 184 187 220 218 211 240 249 237 228 243 233 213 222 235 233 225 214 211 210 189 177 183 179 164 160 164 173 174 167 166 166 162 160 161 160 160 157 150 146 145 145 152 160 162 159 149 140 138 139 138 138 137 123 109 94 64 44 26 9 4 354 348 350 349 346 350 353 352 351 349 345 342 342 342 342 342 342 342 341 338 336 333 331 331 332
138 168 176 203 219 229 250 253 244 312 280 253 220 216 227 226 218 211 208 199 180 175 173 168 167 168 169 176 174 161 160 170 170 162 160 161 161 157 154 149 143 143 153 162 163 159 149 144 144 142 141 142 141 133 124 107 79 48 24 11 4 356 351 349 349 352 356 356 354 353 349 345 344 343 341 340 340 341 342 342 339 333 332 335 339 341
148 202 193 186 211 225 239 239 227 215 249 248 224 215 223 224 211 198 197 193 186 183 174 166 171 177 175 174 170 162 164 172 172 164 161 164 166 161 154 142 135 142 154 159 158 153 149 148 147 144 143 145 145 142 133 117 101 64 27 17 5 358 353 348 350 356 358 357 355 352 348 345 344 344 342 339 338 339 340 344 345 339 334 336 340 346
196 210 197 191 217 227 231 233 225 209 229 244 239 223 217 214 200 194 197 197 195 190 177 168 168 173 178 179 173 168 167 166 166 164 163 164 165 159 154 153 151 153 159 158 153 147 146 148 148 147 147 149 151 149 140 129 122 102 53 27 6 1 355 351 353 355 355 355 354 351 347 345 343 343 342 341 340 340 339 340 344 347 348 345 344 348